GEFSMW_500_meanwind_096.txt.gz
Wind_Speed
29 30 29 30 28 27 25 22 21 20 18 18 18 19 19 19 19 18 18 18 18 19 20 19 18 19 20 21 21 22 23 23 23 24 24 25 26 26 27 27 27 28 29
30 32 32 30 28 26 23 22 22 22 20 19 18 19 21 21 21 20 20 20 21 21 21 21 22 21 21 22 23 23 23 24 25 26 27 27 27 28 28 28 30 31 32
29 31 31 30 29 26 24 23 23 21 22 22 23 22 23 23 23 23 22 22 23 24 24 25 25 24 24 25 25 25 26 26 26 27 27 28 28 28 30 31 32 33 34
28 28 28 28 28 26 26 24 22 21 22 23 24 24 24 23 23 24 24 24 25 25 26 26 26 26 27 27 28 28 29 30 30 29 29 29 30 31 32 33 35 36 37
28 29 29 29 27 26 26 24 22 22 22 23 24 25 25 26 26 26 25 26 27 27 28 28 28 29 29 29 30 30 30 32 31 31 31 31 33 34 36 36 37 39 40
28 29 29 27 27 27 27 26 25 24 24 24 25 26 27 28 28 28 28 28 28 29 29 30 30 30 30 32 32 32 33 31 31 33 34 35 36 37 38 39 40 41 42
28 29 29 28 28 29 29 28 26 26 25 26 27 28 29 30 30 30 30 30 30 30 31 31 32 33 33 33 34 34 34 34 35 35 37 38 39 39 39 41 42 44 45
26 27 28 28 28 29 29 28 27 27 27 27 28 30 30 31 32 32 32 32 33 34 34 35 35 36 36 36 37 37 37 37 37 38 39 40 40 41 41 42 43 44 45
28 27 28 28 28 28 29 29 29 29 28 29 30 31 31 31 32 33 33 33 35 36 36 37 38 38 39 39 40 39 40 40 39 40 41 42 42 42 42 43 44 45 47
27 29 28 29 28 28 28 29 30 30 30 31 32 32 32 32 32 33 34 35 36 37 38 39 39 39 39 39 40 40 41 41 41 42 43 43 43 44 45 45 45 46 48
25 26 26 28 28 28 28 29 29 29 30 31 32 33 34 34 34 35 35 36 37 38 39 39 39 39 39 40 41 41 42 42 43 43 42 42 43 43 44 44 44 45 45
26 26 26 26 27 27 28 28 29 30 31 32 33 33 34 34 35 36 36 37 38 39 39 39 39 39 39 40 40 41 42 42 41 41 41 42 42 42 43 44 44 44 44
24 23 24 24 25 26 27 27 28 29 30 32 33 33 34 34 35 35 36 37 38 39 39 39 40 40 40 40 41 41 40 40 40 40 41 41 42 42 43 43 43 43 43
22 23 23 24 25 26 26 27 28 29 30 31 32 33 34 34 35 36 36 37 37 37 37 38 38 38 39 39 39 39 38 39 39 39 39 39 40 40 40 40 40 40 39
20 21 22 23 24 25 25 26 27 27 28 29 30 31 32 34 34 34 34 34 35 35 36 36 36 36 36 36 36 36 37 37 38 37 37 37 38 38 37 37 36 36 36
20 19 20 21 22 23 24 25 25 25 26 26 27 29 30 30 30 31 32 32 33 33 33 33 34 34 34 34 34 35 35 34 35 35 35 35 34 33 33 33 33 33 33
19 19 18 19 21 22 23 23 24 25 25 26 27 27 27 27 28 29 30 30 30 30 30 31 31 32 31 31 31 31 31 31 31 31 30 30 30 30 30 29 29 29 29
18 19 19 19 20 20 21 22 23 23 24 24 24 25 25 26 27 27 27 27 27 28 28 29 29 28 28 28 28 28 28 28 28 27 27 27 27 27 26 26 26 26 27
17 18 18 18 19 19 21 21 22 22 22 22 23 23 24 24 24 24 24 24 24 25 26 26 25 25 25 25 26 26 25 25 25 25 25 24 24 23 23 24 24 25 25
16 16 16 17 17 17 18 19 20 20 21 21 22 22 22 21 21 21 22 22 23 23 23 23 23 23 23 23 23 23 23 23 23 22 22 22 22 22 22 22 22 22 21
15 14 15 15 15 15 16 16 16 17 18 18 18 19 19 19 20 20 20 20 21 21 21 21 21 21 21 21 21 21 21 21 20 20 20 20 20 20 19 19 18 18 17
13 13 13 13 14 14 14 14 15 15 15 15 16 17 17 18 18 18 18 19 19 19 19 19 19 19 19 19 18 18 18 17 17 18 18 18 17 17 17 16 15 15 14
12 12 12 12 12 12 13 13 13 13 13 13 14 14 15 15 15 16 16 16 16 16 16 16 17 17 17 16 16 16 16 15 15 15 15 15 15 13 13 12 13 12 12
10 10 10 9 10 10 10 11 11 12 12 12 12 13 13 13 13 13 13 13 13 13 13 14 14 14 14 13 13 13 13 13 13 13 13 13 11 11 11 11 11 11 11
10 9 8 8 8 8 8 9 10 10 10 10 11 11 12 12 12 12 12 11 11 11 11 12 12 12 12 11 10 10 9 9 10 11 11 11 11 11 11 11 10 10 10
9 8 7 7 7 7 7 7 8 8 8 9 9 10 10 10 10 10 10 10 10 10 10 10 10 10 9 8 8 8 8 9 10 10 10 10 11 11 11 11 11 10 10

GEFSMW_500_meanwind_102.txt.gz
Wind_Speed
29 28 28 28 28 28 29 28 27 28 28 27 26 26 26 27 27 27 27 27 27 26 27 26 25 25 26 26 26 27 27 26 27 27 27 27 29 29 29 28 28 29 30
30 29 29 29 29 29 29 30 29 28 29 29 28 27 27 29 29 29 28 27 27 26 26 25 25 25 26 27 27 28 28 28 28 28 28 28 29 30 30 30 30 31 31
27 28 29 29 30 30 30 29 27 28 27 27 27 27 29 29 29 29 29 28 26 26 26 26 26 26 26 28 28 30 30 29 29 30 31 31 30 30 30 31 32 33 34
26 28 29 29 30 30 29 27 26 27 27 27 27 28 29 29 28 28 29 29 28 27 27 27 28 27 27 28 29 30 31 31 32 33 33 33 33 32 32 33 34 35 37
27 28 28 29 29 29 28 28 28 28 27 27 26 25 26 27 27 28 30 30 29 28 27 27 27 28 29 30 31 32 32 32 33 33 34 35 34 35 36 37 38 38 39
27 27 28 28 29 29 29 29 28 27 26 25 26 25 26 27 27 29 30 30 30 29 29 29 30 30 31 31 32 33 34 34 33 34 35 35 36 38 39 40 40 40 41
27 28 28 29 30 30 29 29 28 28 28 26 26 26 27 27 27 28 28 29 30 31 31 31 31 32 32 33 34 34 35 36 36 36 36 37 39 40 41 41 42 43 44
26 27 28 29 29 30 29 29 29 29 29 27 27 27 27 28 28 28 28 29 30 32 32 32 33 34 34 34 34 36 37 36 36 37 37 39 39 40 41 41 42 44 45
26 27 28 28 28 28 29 29 29 29 29 28 28 28 28 27 28 28 28 30 30 31 32 33 34 35 35 36 37 37 37 37 37 38 38 39 40 41 42 43 43 44 45
25 27 28 29 30 30 30 30 30 28 27 27 27 27 28 29 29 30 30 31 32 33 33 34 34 35 36 37 37 37 37 37 38 39 39 40 42 43 43 43 44 44 45
24 25 26 27 28 29 29 29 29 28 27 27 28 28 28 29 30 30 31 32 33 34 35 35 35 35 36 36 36 36 36 37 38 39 40 41 42 42 42 43 43 44 44
22 23 24 25 26 26 26 27 27 27 28 28 28 29 29 29 29 30 31 32 33 33 33 34 34 35 36 36 36 37 37 37 38 39 39 40 40 41 41 41 41 42 42
20 21 22 22 22 23 24 24 24 24 25 26 27 28 28 28 29 30 30 31 32 33 33 33 34 34 35 35 36 36 36 37 37 38 38 38 38 38 38 38 39 39 39
19 19 19 20 21 21 21 23 23 23 23 24 25 26 26 27 27 28 29 30 31 32 32 32 33 33 34 34 34 35 35 36 36 36 36 35 35 35 36 37 37 36 37
20 20 19 19 19 19 19 20 21 21 21 22 23 24 25 26 27 27 28 29 29 30 30 31 31 31 31 32 33 33 33 33 33 32 33 33 34 34 34 35 35 35 34
19 18 18 17 17 18 18 19 19 19 20 21 22 23 23 24 25 26 26 27 27 27 28 28 28 29 29 30 31 30 30 30 30 31 31 32 32 32 33 33 33 33 31
17 17 17 17 18 17 17 17 18 20 20 20 21 22 22 22 23 23 24 24 25 25 26 26 27 27 28 28 27 27 27 27 27 28 29 30 30 30 29 30 29 29 29
16 16 17 17 17 17 17 17 17 17 18 18 19 19 20 20 21 22 23 23 23 24 24 24 24 24 25 25 25 25 25 25 26 25 25 25 25 25 25 25 25 26 25
16 15 16 17 17 16 16 16 16 16 17 17 17 17 18 18 19 20 21 21 21 21 21 22 22 23 23 23 23 23 23 23 23 23 22 22 22 22 22 22 22 22 21
14 14 14 15 15 15 16 16 15 15 15 16 16 17 17 17 18 18 19 19 19 19 19 20 19 20 20 20 20 20 20 20 20 20 20 20 20 20 20 20 20 19 19
13 13 13 13 13 13 14 14 14 14 14 15 15 15 15 16 17 17 18 17 17 17 18 18 18 18 18 18 18 17 17 17 17 18 18 18 18 18 18 18 17 17 16
12 12 12 11 12 12 12 12 12 12 12 13 13 14 14 15 15 15 15 16 16 16 16 16 16 15 15 15 15 15 15 15 16 16 16 16 16 16 16 16 15 14 13
11 11 11 11 11 10 10 10 10 10 11 11 11 12 13 13 14 14 14 14 14 14 13 13 13 14 14 14 14 14 14 14 14 15 15 15 15 15 14 13 12 12 11
10 10 10 10 9 8 8 9 9 9 9 10 10 11 11 12 12 12 12 12 12 12 12 12 12 12 12 12 12 12 12 12 12 12 12 12 12 12 12 11 11 11 10
8 8 7 6 6 6 7 7 7 8 8 9 9 10 10 10 11 11 11 11 11 11 10 10 10 10 10 10 10 9 10 10 11 11 11 11 11 11 11 10 10 9 8
8 7 6 5 5 5 5 6 6 6 7 7 8 8 9 9 10 10 10 10 10 9 9 8 8 8 8 8 8 8 9 10 10 11 11 11 10 10 10 9 8 8 7

GEFSMW_500_meanwind_108.txt.gz
Wind_Speed
30 31 31 31 31 31 30 30 30 29 28 27 27 27 26 26 26 27 29 28 28 29 29 30 30 30 30 31 31 31 31 31 30 30 30 30 30 30 30 30 30 31 32
29 30 31 32 33 33 32 31 31 31 30 29 29 29 29 30 30 29 30 30 30 30 31 31 31 32 33 32 31 30 30 31 32 32 30 31 32 33 32 31 31 32 33
28 30 31 32 34 34 33 32 32 31 31 31 32 32 31 30 30 30 31 31 31 32 32 33 33 33 32 31 30 30 31 31 31 32 32 32 33 34 33 33 34 34 34
27 28 29 31 32 33 33 33 33 33 32 32 33 32 31 30 30 30 30 32 33 34 34 34 33 32 31 31 32 33 34 34 34 34 34 34 34 34 34 35 36 37 37
25 26 28 29 30 31 32 33 33 33 33 33 32 32 32 31 31 31 31 33 33 34 33 32 32 32 33 33 33 34 34 35 35 36 36 36 35 36 37 37 37 38 39
24 25 26 28 29 30 31 31 31 32 32 32 31 32 32 32 32 32 32 33 33 33 32 31 31 32 33 33 34 35 35 36 37 37 37 37 37 37 38 39 40 40 41
24 25 26 28 29 29 29 30 30 31 31 31 31 31 31 32 31 31 32 34 33 34 34 33 32 33 35 35 35 36 36 36 37 38 38 38 39 40 40 41 41 42 42
24 25 25 26 27 29 29 29 30 31 30 30 30 30 31 31 30 30 30 32 32 32 32 33 32 32 32 33 34 35 36 37 38 39 40 41 41 42 43 43 43 43 44
24 24 24 25 26 27 28 29 30 30 30 30 30 30 30 31 31 31 30 30 30 30 30 30 31 31 32 32 33 34 36 38 39 40 41 41 42 42 42 42 43 44 45
22 22 23 24 25 25 26 28 29 30 30 30 30 30 31 31 30 29 28 29 29 29 30 30 31 32 33 33 34 35 35 37 38 39 40 41 41 41 41 41 42 43 44
20 21 22 23 24 25 26 27 29 29 30 31 31 32 31 30 29 29 29 30 29 29 30 32 32 33 33 33 34 34 35 36 37 38 39 40 40 40 40 40 41 42 43
19 20 21 23 24 25 26 27 28 28 28 29 29 29 29 29 29 29 29 29 28 29 30 31 32 32 32 32 34 35 35 36 37 38 38 39 38 38 39 40 41 41 41
19 20 21 22 23 25 25 25 26 26 26 26 27 27 27 27 27 27 28 28 28 29 29 29 29 30 31 32 33 33 34 35 35 36 36 36 37 37 38 38 38 39 39
20 20 21 22 23 23 24 24 24 24 24 24 24 24 24 25 25 26 27 27 27 27 27 28 29 30 31 31 32 33 33 34 34 34 34 35 35 35 35 35 35 36 36
20 21 22 22 21 21 22 22 21 22 22 22 22 22 23 23 24 24 25 25 25 25 26 26 27 28 29 30 31 31 31 31 31 31 32 32 32 32 32 32 32 32 32
21 21 21 21 21 20 21 21 19 19 20 20 20 20 21 21 21 21 21 22 23 24 24 25 26 26 27 27 27 28 28 28 29 30 30 30 30 30 30 31 31 31 30
20 20 21 21 19 19 19 19 19 18 17 17 18 18 19 19 19 19 20 21 22 22 23 23 24 25 25 25 25 25 26 26 27 27 28 28 28 28 28 27 27 27 27
18 18 18 18 17 18 19 18 17 17 16 16 16 15 15 16 17 18 18 18 18 19 20 21 22 22 23 23 23 24 24 24 24 24 24 24 25 25 25 25 24 24 24
17 16 16 16 16 16 16 16 16 15 14 14 14 14 15 15 15 15 15 16 17 18 18 19 19 20 20 20 21 21 21 21 21 21 21 21 21 22 22 22 22 22 22
14 13 13 13 13 14 14 14 13 12 12 13 13 13 13 14 14 14 14 15 16 16 17 17 17 18 19 19 20 20 19 19 19 19 19 19 19 20 20 19 19 19 19
12 11 11 10 10 11 11 12 12 11 12 12 12 13 13 13 13 13 14 14 15 15 15 16 16 17 17 17 17 17 17 17 17 17 18 17 17 18 17 17 16 16 16
10 10 9 9 9 10 9 9 9 10 10 10 11 11 11 12 12 12 12 13 13 14 14 14 15 15 15 16 16 15 15 15 15 15 15 15 15 15 14 14 14 13 12
9 8 8 8 8 8 8 8 7 8 8 8 9 9 10 10 10 11 11 12 12 12 12 13 13 13 13 14 14 14 13 13 13 13 13 13 12 12 12 11 10 9 8
7 7 7 7 7 8 8 7 7 7 7 6 7 7 8 8 9 10 10 10 10 10 10 11 11 11 11 11 11 11 10 10 10 11 11 11 11 10 9 8 7 6 6
6 6 5 5 6 6 6 6 6 5 5 6 6 7 7 7 8 8 8 8 8 8 8 9 9 9 9 9 9 9 10 10 10 9 9 9 8 7 7 7 6 5 4
6 5 4 4 4 4 4 4 3 3 4 5 5 6 6 6 6 6 6 6 6 7 7 7 7 7 7 7 7 8 8 8 7 7 7 7 6 6 6 5 4 3 3

GEFSMW_500_meanwind_114.txt.gz
Wind_Speed
29 30 31 31 31 32 33 34 33 32 32 31 30 29 28 28 27 28 27 28 28 28 28 27 26 27 28 28 28 29 29 28 28 29 29 29 29 30 30 29 30 30 31
30 31 32 32 33 33 34 36 36 35 33 32 31 31 30 30 30 30 30 29 29 28 29 28 27 28 30 30 29 30 30 30 30 30 30 31 30 30 30 30 31 32 32
30 30 32 33 33 34 35 36 37 36 34 33 32 32 32 32 32 31 31 31 30 30 30 29 30 30 31 31 31 32 32 32 31 32 32 32 32 32 32 33 33 33 33
28 30 31 32 33 34 35 36 36 35 35 34 34 34 34 34 34 33 33 33 32 31 31 30 30 31 31 32 34 34 34 34 33 34 34 34 33 33 33 34 35 35 35
26 28 30 31 32 33 34 35 35 36 35 35 35 35 35 35 35 35 35 34 33 33 32 31 31 32 32 32 32 33 34 34 35 35 35 36 36 35 35 35 36 37 37
25 27 28 29 31 32 32 32 33 34 35 35 36 36 35 36 36 36 36 34 34 33 33 33 33 33 33 32 32 33 34 35 36 36 37 37 37 37 37 37 37 37 38
24 26 26 28 29 30 31 32 33 34 35 35 36 36 35 36 36 36 35 35 35 34 33 33 33 33 33 33 34 33 34 34 35 36 37 37 37 38 38 39 40 40 40
24 25 26 27 28 29 30 31 32 33 34 35 35 35 35 36 36 37 36 35 35 35 34 33 33 33 34 35 35 34 34 35 36 36 36 36 36 37 39 40 41 42 42
23 24 26 27 28 28 29 30 31 32 33 34 35 35 35 36 36 37 36 35 35 35 34 33 33 33 33 33 33 33 33 33 34 35 35 35 36 37 38 39 41 42 42
21 23 25 26 27 28 28 29 30 32 32 33 34 35 35 36 36 35 35 35 35 35 34 34 34 34 33 33 33 33 33 33 34 34 34 35 36 37 38 39 41 42 42
23 24 26 27 28 29 30 30 31 32 32 33 34 35 35 35 35 35 34 34 34 34 34 34 34 34 33 33 32 32 31 32 33 33 34 35 36 38 38 38 39 40 40
25 26 26 27 28 30 31 31 32 33 33 34 34 34 35 34 34 34 34 34 34 34 34 34 34 33 33 33 32 32 32 32 32 33 33 35 36 36 36 37 37 38 38
26 27 28 28 28 30 31 31 31 31 31 32 32 32 33 33 33 33 33 33 33 33 33 32 32 31 30 30 29 30 29 31 31 31 32 33 34 35 35 36 36 37 37
28 28 29 29 28 29 29 29 29 29 30 29 29 29 30 31 31 31 31 32 32 31 31 30 30 29 29 29 29 29 29 29 30 31 32 33 33 34 34 35 35 35 34
27 28 28 28 27 27 26 26 27 27 26 26 26 26 26 27 28 28 28 28 28 27 26 26 26 26 26 27 28 28 28 29 29 30 30 31 32 33 32 32 32 32 32
27 27 27 26 25 25 24 24 24 24 23 23 23 23 23 22 23 23 24 23 23 23 22 22 23 23 24 24 24 25 26 26 26 27 28 28 28 29 29 29 30 30 30
26 26 25 24 23 23 23 22 21 21 21 21 20 20 20 21 21 20 20 20 20 20 20 21 21 20 21 21 22 23 23 23 23 24 24 25 26 26 27 27 27 27 27
25 24 23 22 21 20 20 20 20 19 18 17 18 18 17 17 17 18 18 18 18 18 19 19 19 20 20 20 20 20 21 22 22 22 22 23 23 23 24 24 24 24 24
22 22 21 20 19 18 18 18 18 17 16 15 16 16 16 16 15 15 15 15 16 16 17 17 17 17 18 18 18 19 19 20 20 20 20 20 21 21 21 21 21 21 21
19 19 18 17 16 15 15 15 15 14 13 13 14 14 14 13 12 12 13 13 13 13 14 15 15 15 16 16 17 17 17 18 18 18 19 19 20 20 19 19 19 19 19
17 16 15 14 13 13 12 11 11 11 11 11 11 11 11 11 11 11 12 11 11 11 12 12 13 14 14 15 15 15 16 16 16 17 17 18 18 17 17 17 17 17 16
15 14 12 11 10 10 10 9 9 8 8 8 8 8 8 9 9 9 9 9 10 10 10 11 12 12 13 13 14 14 14 14 14 15 15 15 15 15 15 15 14 13 13
13 11 9 9 8 8 9 9 8 7 7 7 7 7 7 7 8 8 8 9 9 9 10 10 11 12 12 13 13 13 13 13 13 13 13 13 13 13 13 12 11 10 10
11 9 8 8 8 7 7 7 6 6 5 6 6 6 6 7 7 8 8 8 8 9 9 10 10 11 11 12 12 11 11 11 11 12 12 12 12 12 11 10 9 9 8
9 9 8 7 7 6 7 7 5 5 5 5 5 6 6 6 7 7 7 7 8 8 8 8 9 9 10 10 10 10 10 10 10 10 11 11 10 10 9 9 8 7 7
9 8 7 6 6 6 5 5 5 5 5 5 5 5 5 5 5 6 6 6 6 6 7 7 8 8 8 9 8 8 8 8 9 9 10 9 8 8 8 7 7 6 5